Regional Weather Roundup
Issued by NWS

Home | Current Version | Previous Version | Text Only | Print | Product List | Glossary On
Versions: 1 2 3 4 5 6 7 8 9 10 11 12 13 14 15 16 17 18 19 20 21 22 23 24 25 26 27 28 29 30 31 32 33 34 35 36 37 38 39 40 41 42 43 44 45 46 47 48 49 50
000
ASUS46 KSEW 051110
RWRWA

WASHINGTON REGIONAL WEATHER ROUNDUP
NATIONAL WEATHER SERVICE SEATTLE WA
400 AM PDT THU MAY 05 2016

NOTE:"FAIR" INDICATES FEW OR NO CLOUDS BELOW 12,000 FEET WITH NO
SIGNIFICANT WEATHER AND/OR OBSTRUCTIONS TO VISIBILITY.

WAZ505-507>509-051200-
SEATTLE, TACOMA, EVERETT, AND VICINITY

CITY           SKY/WX    TMP DP  RH WIND       PRES   REMARKS
EVERETT        CLOUDY    48  43  82 CALM      30.03S
BOEING FIELD   MOCLDY    53  45  74 CALM      30.03S
RENTON         CLOUDY    53  44  71 CALM      30.02F
SEATAC AIRPORT MOCLDY    53  43  68 NE7       30.03S
JBLM-MCCHORD   CLOUDY    53  49  84 VRB1      30.03R
PUYALLUP       CLOUDY    52  50  93 CALM      30.02S
BREMERTON      CLOUDY    48  48 100 CALM      30.04F
JBLM-FT LEWIS  CLOUDY    53  48  84 NW1       30.02S
TACOMA NARROWS CLOUDY    52  46  80 CALM      30.02F
$$

WAZ001-503-506-510-514-515-051200-
NORTH INTERIOR

CITY           SKY/WX    TMP DP  RH WIND       PRES   REMARKS
BELLINGHAM     PTCLDY    48  45  89 CALM      30.02S
FRIDAY HARBOR  PTCLDY    44  41  89 CALM      30.04S
EASTSOUND      PTCLDY    54  45  71 N8G16     30.02R
PORT ANGELES   PTCLDY    43  41  93 CALM      30.04R
EDIZ HOOK      CLOUDY    50  45  82 W5        30.04R
PORT TOWNSEND  CLOUDY    52  45  76 CALM      30.04R
NAS WHIDBEY    CLOUDY    52  49  89 CALM      30.07R
ARLINGTON      MOCLDY    45  37  76 CALM      30.05R
BURLINGTON     MOCLDY    50  48  93 CALM      30.03S
$$

WAZ020-022-039-040-504-511-512-051200-
SOUTHWEST INTERIOR

CITY           SKY/WX    TMP DP  RH WIND       PRES   REMARKS
SHELTON        CLOUDY    49  44  83 W6        30.01S
OLYMPIA        CLOUDY    52  48  86 CALM      30.02F
CHEHALIS       CLOUDY    52  46  82 CALM      30.02F
KELSO          CLOUDY    52  41  66 NW5       30.04F
VANCOUVER      CLOUDY    53  45  74 VRB6      29.99S
SCAPPOOSE, OR  CLOUDY    52  43  71 N6        29.99S
PORTLAND, OR   CLOUDY    54  45  71 NW8       30.00S
$$

WAZ021-516-517-051200-
WASHINGTON COAST

CITY           SKY/WX    TMP DP  RH WIND       PRES   REMARKS
FORKS          CLOUDY    44  42  93 E5        30.03F
HOQUIAM        MOCLDY    47  46  97 CALM      30.04S
ASTORIA, OR    CLOUDY    52  46  80 NW10      30.04S
$$

WAZ019-023-024-040-518-519-051200-
CASCADE MOUNTAINS AND COLUMBIA GORGE

CITY           SKY/WX    TMP DP  RH WIND       PRES   REMARKS
STAMPEDE PASS  FOG       41  39  93 VRB5      29.98R VSB 1/4
TROUTDALE, OR  CLOUDY    55  46  71 VRB3      29.98F
THE DALLES, OR CLOUDY    57  48  72 NW9       29.91F
$$

WAZ026-027-041>044-520-521-051200-
EAST SLOPES

CITY           SKY/WX    TMP DP  RH WIND       PRES   REMARKS
OMAK           CLOUDY    59  51  75 N9        29.90R
WENATCHEE      CLOUDY    57  50  77 NW6       29.90S
ELLENSBURG     CLOUDY    55  46  71 N14       29.91S
YAKIMA         CLOUDY    61  47  59 NW8       29.90S
$$

WAZ028-034-035-051200-
COLUMBIA BASIN

CITY           SKY/WX    TMP DP  RH WIND       PRES   REMARKS
EPHRATA        CLOUDY    59  52  77 NW7       29.89R
MOSES LAKE     CLOUDY    57  55  93 SE7       29.90R
PASCO          CLOUDY    59  54  83 SW5       29.90R
HERMISTON, OR  CLOUDY    56  52  86 S3        29.90S
$$

WAZ036>038-051200-
NORTHEAST WASHINGTON

CITY           SKY/WX    TMP DP  RH WIND       PRES   REMARKS
SPOKANE GEIGER CLOUDY    54  50  86 S8        29.93R
SPOKANE FELTS  CLOUDY    53  51  93 N3        29.93R
FAIRCHILD AFB  CLOUDY    52  52 100 S6        29.93R
COEURDALENE,ID MOCLDY    52  48  87 SW3       29.90R
DEER PARK      CLOUDY    52  51  97 S7        29.92R
$$

WAZ029>033-051200-
SOUTHEAST WASHINGTON

CITY           SKY/WX    TMP DP  RH WIND       PRES   REMARKS
PULLMAN        PTCLDY    50  47  89 CALM      29.97R
LEWISTON, ID   MOCLDY    57  50  77 W5        29.93R
WALLA WALLA    CLOUDY    55  51  86 E7        29.91S
PENDLETON, OR  CLOUDY    53  50  89 S3        29.91S
$$



USA.gov is the U.S. government's official web portal to all federal, state and local government web resources and services.